Regional Weather Roundup
Issued by NWS

Home | Current Version | Previous Version | Graphics & Text | Print | Product List | Glossary On
Versions: 1 2 3 4 5 6 7 8 9 10 11 12 13 14 15 16 17 18 19 20 21 22 23 24 25 26 27 28 29 30 31 32 33 34 35 36 37 38 39 40 41 42 43 44 45 46 47 48 49 50
000
ASUS45 KCYS 172110
RWRWY

WYOMING REGIONAL WEATHER ROUNDUP
NATIONAL WEATHER SERVICE CHEYENNE WY
300 PM MDT FRI APR 17 2015

NOTE:  "FAIR" INDICATES FEW OR NO CLOUDS BELOW 12,000 FEET
WITH NO SIGNIFICANT WEATHER AND/OR OBSTRUCTIONS TO VISIBILITY.

WYZ001-172200-
YELLOWSTONE NATIONAL PARK

CITY           SKY/WX    TMP DP  RH WIND       PRES   REMARKS
LK YELLOWSTONE   N/A     50  13  22 E5        30.18F
W YELLOWSTONE  NOT AVBL

$$
WYZ002>013-054>058-071-098>099-172200-
NORTHERN WYOMING

CITY           SKY/WX    TMP DP  RH WIND       PRES   REMARKS
JACKSON        FAIR      61  14  16 N9G16     30.08F
CODY           FAIR      55  28  35 N7        30.14F
GREYBULL       FAIR      60  27  28 SW7       30.10F
WORLAND        FAIR      58  30  34 VRB5      30.11F
SHERIDAN       FAIR      61  31  32 CALM      30.12F
BUFFALO        FAIR      59  30  33 VRB3      30.14F
GILLETTE       FAIR      61  34  36 N10       30.12F
HULETT         FAIR      61  32  33 E8        30.13F
NEWCASTLE      FAIR      50  34  53 S10       30.15F

$$
WYZ014>020-022>026-101>103-172200-
CENTRAL WYOMING

CITY           SKY/WX    TMP DP  RH WIND       PRES   REMARKS
BIG PINEY      FAIR      59  13  16 E14G26    30.07F
PINEDALE       FAIR      57  10  15 NE16G23   30.09F
DUBOIS         FAIR      52  21  30 SE13G22   30.13F
LANDER         FAIR      52  28  39 N10       30.12F
RIVERTON       FAIR      56  27  32 NE12G18   30.13F
CASPER         LGT RAIN  36  34  92 E12       30.16S FOG     WCI  28
DOUGLAS        RAIN      38  35  89 VRB3      30.16F FOG

$$
WYZ021-027>030-104>119-172200-
SOUTHERN WYOMING

CITY           SKY/WX    TMP DP  RH WIND       PRES   REMARKS
EVANSTON       CLOUDY    43  33  68 E10       30.13F
KEMMERER       FAIR      52  32  46 SE8       30.11F
FORT BRIDGER   CLOUDY    39  39 100 E12       30.16F WCI  32
ROCK SPRINGS   LGT RAIN  37  34  89 NE25G31   30.11S WCI  25
DIXON          MOCLDY    45  32  60 NE26G33   30.02S
RAWLINS        FLURRIES  36  32  85 N20G28    30.09F WCI  25
SARATOGA       CLOUDY    41  36  81 NE15G21   30.05F
LARAMIE        SNOW      32  29  88 NE21G29   30.02R VSB 1/2 WCI  20
CHEYENNE       HVY RAIN  34  32  92 N16G26    30.04R FOG     WCI  24
TORRINGTON     CLOUDY    45  42  89 NE24G33   30.03F
PINE BLUFFS    RAIN      45  43  93 E10G17    30.00S

$$



USA.gov is the U.S. government's official web portal to all federal, state and local government web resources and services.